DECAYED

FENGYUN 1C DEB, 32184 (Decayed)

Orbit data source: Space-Track

FENGYUN 1C DEB, 32184 was space debris in SSO originally from a launch on Mon, 10 May 1999 UTC launched from the Taiyaun Space Center, China (TSC). Fengyun 1C debris stems from the Chinese weather satellite Fengyun-1C, which was intentionally destroyed by a Chinese anti-satellite missile in 2007. This event dramatically increased the amount of space debris, with thousands of trackable fragments posing hazards to satellites and human spaceflight. The Fengyun 1C debris cloud has become a focal point in discussions about space sustainability and the need for international regulations to prevent the creation of new debris.

Not visible in the next 10 days
Identifier
32184, 1999-025CUE
Orbit
Decayed
Country
Flag of CNCN / PRC
Related business
Manufacturer
Unknown
Mission
Decayed spacecraft
Bus & Motor
Unknown
Mass
Unknown
Launch date (UTC)
1999-05-10 (27 years ago)
Launch vehicle
Unknown
Launch site
Taiyaun Space Center, China (TSC)
Object type
Payload
Rocket body
Debris
Shape & HBR
Unknown shape, 0.1 m
Radar Cross Section
Small (<0.1 m²)

Expand to show TLE details & history
Last TLE update: 5 months ago

TLE from 5 months ago
0 FENGYUN 1C DEB
1 32184U 99025CUE 26049.38341999  .00206139  00000-0  20236-2 0  9996
2 32184  98.1181 202.4936 0038430 104.8925 255.6593 15.64460458994539
Epoch: 2026-02-18T09:12Z
TLE epoch observation values (Epoch: 2026-02-18T09:12:07.487Z)
Latitude
0.00002°
Longitude
-83.88745°
Altitude
384.443 km
Speed
7.676 km/s
True Right ascension
13h 29m 58s
True Declination
0° 00' 00"
Sunlit
Object was in full shadow at epoch
Visualization orbit readout
Latitude
Unknown
Longitude
Unknown
Altitude
Unknown
Speed
Unknown
Apparent Right ascension
Unknown
Apparent Declination
Unknown
Sunlit
N/A
Visualization observer readout
Local Sidereal Time
01:58:18
Azimuth
Unknown
Elevation
Unknown
Doppler factor
Unknown
Orbital elements
Apogee altitude
397.67 km
Perigee altitude
345.79 km
Semi-major axis
6,749.867 km
Eccentricity
0.00384
Inclination
98.1181°
RAAN
202.4936°
Arg. of periapsis
104.8925°
True anomaly
255.23316°
Mean anomaly
255.6593°
Eccentric anomaly
255.44618°
Mean motion
3.91382 °/min
Orbital period
91.98 mins
BSTAR
0.0020236
Loading maneuver chart data...
Computing Atmospheric mass density...

Documentation

Showing up to 5 results
|